Wind_Speed
12 12 12 12 13 12 10 11 11 11 10 9 9 8 8 7 7 7 7 6 6 6 6 7 7 7 7 8 7 7 7 7 7 7 8 7 7 7 6 6 6 6 6 5 5 5 4 3 4
13 13 12 12 13 11 10 10 10 10 9 9 8 8 8 8 8 7 7 7 6 7 7 6 7 7 8 8 7 7 7 6 7 6 6 6 6 6 6 6 5 5 5 5 5 5 4 3 3
13 13 13 13 12 11 10 10 10 10 9 9 9 8 8 8 8 8 7 7 7 6 6 6 6 7 8 8 7 7 6 6 6 5 6 5 5 5 5 6 5 5 5 5 5 4 3 3 3
14 14 14 13 12 11 11 10 10 10 10 9 8 8 8 8 8 8 7 7 7 7 7 7 7 7 7 7 6 6 6 5 5 5 5 6 5 4 4 4 4 5 5 5 4 4 3 3 4
14 15 15 12 12 11 11 11 10 10 10 9 9 8 8 8 8 8 8 7 7 8 7 7 7 7 7 7 6 6 5 5 5 5 5 5 4 4 4 3 3 3 5 5 5 4 4 4 4
15 16 15 13 12 12 11 11 11 10 10 10 9 8 8 8 9 9 8 8 8 9 8 8 8 7 6 7 6 6 6 5 5 4 4 4 4 3 3 3 3 3 4 5 5 4 4 4 4
15 15 14 13 12 11 11 10 11 11 10 10 9 9 9 9 9 9 9 9 9 8 8 8 8 8 7 7 7 7 7 6 5 5 4 4 4 3 3 3 3 3 3 4 5 4 4 4 4
14 15 13 12 12 11 10 10 10 10 10 10 10 9 10 10 10 10 10 9 9 8 8 8 8 8 7 7 8 8 7 7 6 5 5 4 4 3 3 2 2 2 3 4 4 4 5 5 4
13 14 11 11 11 11 10 10 10 10 10 10 10 9 10 10 10 10 9 9 8 8 8 7 6 7 7 7 7 7 7 6 6 5 5 4 4 4 3 2 2 2 2 2 3 3 4 3 3
12 12 11 11 11 11 11 11 11 10 10 10 10 10 9 9 10 10 9 8 8 8 7 7 6 6 7 7 7 7 6 6 5 5 5 4 4 3 3 3 2 2 2 1 2 2 2 2 3
11 12 11 11 11 11 11 11 11 11 10 10 10 10 9 9 10 10 9 9 8 8 7 6 6 6 6 6 6 6 6 6 5 5 5 4 3 3 3 3 2 2 2 2 2 2 2 2 2
11 11 11 11 11 11 11 11 11 11 10 11 11 10 10 10 10 9 9 8 8 8 8 7 8 7 7 6 6 5 5 5 5 4 4 3 2 2 1 1 1 1 2 2 1 2 2 2 3
10 10 10 10 10 11 12 12 11 11 11 11 11 10 10 10 10 9 9 9 9 9 9 9 9 9 8 6 5 5 4 4 4 4 3 2 2 1 0 0 1 2 2 2 1 2 2 2 3
9 9 10 10 10 10 11 12 11 11 11 10 10 10 10 10 10 9 9 8 8 9 9 9 9 8 7 7 6 5 4 4 4 3 3 2 1 1 1 1 1 2 2 2 2 3 3 3 4
8 8 9 9 9 10 10 11 11 10 10 9 9 9 9 10 10 9 9 8 8 8 9 9 9 9 8 7 7 7 6 5 4 3 2 2 1 1 1 0 0 1 2 2 2 3 4 5 5
7 8 8 7 8 8 9 10 10 9 9 8 8 8 8 9 9 9 9 8 8 8 9 9 9 9 9 8 8 7 7 6 6 5 4 3 2 1 1 0 0 1 2 3 3 4 5 6 6
6 6 5 5 6 7 7 8 8 8 8 8 8 7 7 8 8 8 9 8 8 8 9 9 9 9 8 8 8 7 7 7 7 6 5 4 4 2 2 1 1 2 3 4 4 5 6 6 6
4 4 3 4 5 5 6 6 7 7 7 7 7 6 6 6 7 7 8 7 7 8 8 8 9 9 9 8 8 8 8 7 6 6 6 5 5 3 3 3 2 2 3 4 4 5 6 6 6
4 3 2 3 3 4 5 5 6 6 7 7 7 6 5 6 6 7 7 7 7 7 8 8 8 8 8 8 8 8 7 7 7 6 6 6 5 4 4 4 3 3 3 4 5 6 6 6 6
3 2 1 1 2 3 4 5 5 6 6 6 6 6 5 5 6 6 7 8 7 7 7 7 7 8 8 8 8 8 7 7 7 7 7 6 6 6 5 6 4 4 4 5 5 6 6 5 6
3 2 2 1 1 3 4 5 5 5 5 5 6 6 4 4 4 6 6 7 7 6 6 7 7 7 7 7 7 7 7 7 7 7 7 7 7 6 6 6 5 5 5 6 6 6 5 6 6
4 4 4 3 1 3 4 4 5 5 5 5 5 4 4 3 3 4 5 6 6 6 5 5 6 6 7 7 7 7 7 8 8 8 8 8 7 7 8 8 7 6 6 6 6 6 7 7 8
6 5 5 4 3 3 4 3 4 5 5 5 5 4 4 3 3 4 4 5 6 6 6 5 5 6 7 7 7 7 8 8 8 9 9 9 8 8 9 9 8 7 6 6 7 7 7 8 8
8 7 7 7 5 5 5 5 4 5 5 5 5 5 4 4 4 3 4 4 5 6 6 6 5 6 6 7 7 7 8 9 9 9 10 10 10 10 10 10 9 9 8 8 8 7 8 8 9
10 8 6 7 7 8 7 7 5 5 4 4 5 5 5 5 5 4 3 3 4 5 6 6 6 6 6 6 7 8 8 9 9 10 10 10 10 10 11 11 10 10 9 8 8 8 9 9 10
11 10 9 9 9 9 9 8 6 6 5 5 5 5 5 5 5 5 5 4 5 6 6 6 7 7 7 7 7 8 9 9 10 10 10 11 11 11 11 11 10 10 10 10 10 10 11 12 13
13 12 12 11 11 10 9 9 7 6 6 7 7 7 6 6 6 6 6 6 6 7 7 8 8 8 8 9 9 9 10 10 10 10 11 12 12 12 12 12 12 11 11 11 11 12 13 13 14
16 14 13 12 12 12 10 10 8 8 8 8 8 9 9 9 8 8 8 8 8 9 10 10 9 10 10 10 10 11 11 11 12 12 12 12 13 13 13 13 13 13 13 13 13 14 14 15 15
18 17 16 16 15 14 13 12 12 11 10 10 10 10 10 10 10 10 10 10 10 11 11 11 11 11 11 12 12 12 12 13 13 13 13 13 14 14 14 15 15 15 15 15 15 16 16 17 17
21 20 18 18 18 17 16 14 14 13 12 12 12 13 13 12 12 11 12 12 13 13 13 13 13 14 14 14 14 14 14 15 15 15 15 15 15 15 16 16 17 17 17 17 17 17 17 18 18
Wind_Direction
88 89 93 95 94 92 98 96 92 92 94 94 92 90 87 83 86 85 84 82 82 90 95 99 105 111 116 117 117 115 112 114 117 120 127 131 135 136 138 141 144 148 151 152 149 151 160 167 170
86 89 94 97 95 96 96 97 94 93 93 92 88 86 83 82 82 87 86 83 84 90 94 100 104 110 117 121 121 121 118 117 119 121 130 137 140 143 145 154 155 156 157 162 167 162 169 173 170
84 88 92 94 98 102 95 91 91 92 91 87 85 85 84 82 84 88 88 83 81 87 95 101 104 113 120 120 121 121 122 122 125 126 133 140 146 151 156 162 164 163 166 171 178 171 173 178 172
82 87 88 89 93 96 93 91 92 89 86 84 84 85 83 80 84 85 86 85 83 85 88 96 100 110 119 121 122 124 122 124 126 123 131 138 142 156 163 164 167 173 179 185 178 179 188 195 182
83 86 83 86 90 92 90 89 89 86 83 82 81 83 81 80 83 84 84 85 82 82 86 87 102 110 120 124 123 122 124 127 128 123 125 133 139 146 155 154 171 188 194 188 188 189 200 207 200
82 82 84 85 88 90 89 87 84 83 82 81 78 78 78 79 81 84 88 88 85 83 85 86 97 102 114 124 126 125 124 125 127 125 127 134 144 155 169 166 178 188 194 196 200 198 204 208 207
83 85 84 84 85 85 84 81 77 77 77 79 78 79 80 79 83 86 87 86 88 87 85 88 91 91 98 111 122 120 117 117 121 122 125 130 135 146 163 179 192 202 196 198 202 198 203 206 204
84 83 80 83 85 82 83 78 77 73 73 76 77 80 82 83 85 86 84 82 86 88 85 86 90 95 99 105 111 112 111 112 114 116 120 122 123 131 147 163 183 202 208 205 193 196 211 192 195
85 80 83 87 86 81 80 79 75 73 74 75 78 79 83 86 87 85 82 83 83 83 79 81 90 95 97 103 107 111 115 116 117 117 119 121 118 120 125 136 158 175 186 207 207 194 202 201 199
85 85 85 85 85 81 78 78 75 72 72 73 75 80 83 84 87 87 86 83 81 78 76 79 85 94 95 96 99 107 108 110 114 120 115 114 116 118 120 127 139 164 175 178 205 205 189 190 199
86 88 85 82 81 79 79 80 77 75 72 72 77 81 79 82 87 89 85 81 79 76 74 78 83 90 94 96 96 96 100 99 99 109 109 105 116 127 133 139 146 164 176 178 196 218 207 197 209
86 85 84 82 81 80 78 80 78 76 75 76 78 78 77 79 85 89 86 81 78 76 76 78 84 94 96 96 95 96 97 97 98 103 104 106 110 128 135 140 165 199 180 190 227 235 199 198 206
88 86 81 81 80 78 77 77 80 79 79 79 78 76 76 77 79 85 85 81 78 76 78 81 85 89 92 92 90 91 94 87 91 100 93 87 74 52 7 272 224 209 204 208 245 251 232 207 213
90 88 83 81 78 76 77 76 75 76 77 79 78 75 74 75 74 80 85 82 79 76 78 80 82 83 83 85 88 91 91 87 79 86 86 80 62 40 0 340 208 213 213 219 246 252 242 234 239
96 89 82 83 82 79 78 71 68 70 73 77 78 76 72 70 72 74 78 79 79 75 76 79 79 79 79 85 88 85 77 77 75 77 72 67 47 24 1 333 206 196 211 239 250 252 251 247 247
94 84 76 82 84 81 77 66 64 64 65 69 73 74 72 70 70 69 72 75 78 76 77 79 75 74 74 80 83 80 76 72 71 67 65 57 51 52 47 360 270 238 244 255 256 258 261 258 257
92 85 86 87 84 75 69 68 63 62 61 64 66 69 71 68 66 66 69 72 77 78 79 76 69 67 68 72 75 73 73 72 71 64 58 54 46 43 38 3 289 262 255 258 259 257 265 266 262
121 107 97 93 83 68 61 62 59 56 53 53 56 60 66 65 63 63 64 66 75 77 76 72 68 66 66 66 68 69 70 66 64 59 53 46 44 40 16 340 306 278 265 263 265 265 269 270 268
137 118 103 88 65 58 58 53 46 45 40 40 43 49 59 62 65 64 59 59 69 77 74 70 69 68 65 65 66 65 60 54 52 51 48 38 30 22 1 347 315 294 283 276 270 277 282 275 276
148 134 120 78 56 52 46 35 31 31 32 31 33 38 52 59 65 59 58 58 63 74 70 66 66 62 59 58 54 51 45 42 45 46 35 25 19 13 360 350 334 300 288 286 286 285 285 281 280
184 191 210 241 25 22 21 19 9 16 21 22 22 29 36 43 51 49 52 53 57 67 63 59 57 54 51 47 42 37 36 37 38 32 22 15 12 11 0 348 334 309 293 287 295 292 286 288 288
228 232 227 241 301 344 354 5 354 357 359 7 9 15 20 25 36 32 36 40 43 45 49 48 47 47 42 38 34 29 29 25 20 19 15 9 4 359 351 347 339 322 306 295 297 299 292 291 291
235 240 242 252 279 307 318 340 334 340 344 346 354 357 357 8 16 18 23 28 32 33 33 32 35 31 26 23 24 19 16 14 14 12 10 8 2 354 349 347 342 330 317 307 302 296 296 295 295
243 249 259 267 283 283 284 301 312 315 327 330 333 336 336 345 353 1 10 16 21 24 24 23 21 16 17 17 14 11 8 9 8 6 4 4 1 354 350 346 340 331 321 313 309 304 298 298 298
248 252 268 277 279 274 280 291 290 287 303 311 317 319 318 323 333 337 345 355 3 7 8 6 3 358 358 3 4 4 3 0 356 354 355 355 355 352 350 344 338 334 325 320 315 307 303 301 299
247 246 245 255 265 272 285 284 285 280 280 285 294 307 316 315 320 323 317 320 332 345 346 345 348 347 349 350 348 347 345 344 344 346 349 347 347 346 343 342 336 331 326 321 317 312 306 305 304
246 248 251 257 263 266 268 276 285 282 277 279 281 285 297 306 312 312 309 311 316 322 325 328 335 340 340 339 335 333 333 334 335 337 339 340 342 342 340 338 337 332 332 327 318 311 306 304 305
244 246 254 254 256 261 266 274 277 276 272 277 280 280 284 287 290 292 295 298 302 305 309 314 318 322 325 327 328 327 327 327 328 329 329 330 332 334 335 337 334 332 327 322 317 313 309 305 305
247 249 251 254 256 258 264 267 270 271 272 275 276 277 281 283 283 285 288 291 294 297 300 306 308 309 313 317 318 318 319 320 319 318 320 321 322 325 327 328 326 324 322 319 315 313 310 307 305
247 249 253 256 260 260 260 262 270 270 270 271 273 273 274 275 275 278 282 286 289 292 296 299 301 302 304 307 310 313 315 317 318 317 315 315 317 318 320 321 322 319 317 316 313 309 308 305 304
Height
5893 5893 5894 5895 5896 5897 5896 5896 5895 5895 5894 5894 5893 5893 5892 5892 5892 5894 5891 5888 5888 5887 5886 5886 5886 5886 5887 5887 5887 5888 5888 5888 5889 5889 5889 5890 5890 5891 5891 5892 5892 5892 5893 5893 5894 5894 5894 5895 5895
5895 5895 5897 5897 5898 5898 5898 5897 5897 5896 5895 5894 5894 5893 5893 5892 5892 5891 5890 5889 5889 5888 5887 5887 5887 5887 5887 5888 5888 5888 5889 5889 5889 5889 5890 5890 5890 5891 5892 5892 5892 5893 5893 5893 5894 5895 5895 5895 5895
5897 5897 5899 5899 5899 5900 5899 5898 5898 5897 5896 5895 5895 5894 5894 5893 5892 5892 5891 5890 5889 5889 5888 5887 5887 5887 5888 5888 5889 5889 5889 5889 5890 5890 5890 5890 5890 5891 5892 5892 5892 5893 5893 5893 5894 5894 5895 5895 5895
5899 5900 5901 5902 5901 5901 5900 5899 5899 5898 5897 5896 5896 5895 5894 5894 5893 5892 5892 5891 5890 5889 5889 5888 5888 5888 5888 5889 5889 5889 5890 5890 5890 5890 5890 5890 5891 5891 5892 5892 5892 5893 5893 5893 5894 5894 5895 5895 5895
5902 5902 5904 5904 5903 5902 5902 5901 5900 5899 5898 5897 5897 5896 5895 5895 5894 5893 5892 5892 5891 5890 5890 5890 5889 5889 5889 5889 5890 5890 5890 5890 5890 5891 5891 5891 5892 5892 5892 5892 5893 5893 5893 5893 5894 5895 5894 5894 5895
5905 5905 5907 5906 5905 5904 5903 5902 5901 5900 5900 5899 5898 5897 5897 5896 5895 5894 5893 5893 5892 5892 5891 5891 5890 5890 5890 5890 5890 5890 5890 5890 5891 5891 5891 5891 5892 5892 5892 5892 5893 5893 5893 5894 5894 5894 5894 5894 5894
5908 5909 5908 5908 5907 5906 5905 5904 5903 5902 5901 5900 5899 5898 5897 5897 5896 5895 5895 5894 5893 5893 5892 5892 5891 5891 5890 5890 5890 5891 5891 5891 5891 5891 5892 5892 5892 5892 5892 5893 5893 5893 5893 5893 5893 5893 5894 5893 5894
5910 5912 5911 5910 5909 5908 5907 5906 5904 5904 5903 5902 5901 5900 5899 5898 5897 5897 5896 5895 5895 5894 5893 5893 5892 5891 5891 5891 5891 5891 5891 5892 5892 5892 5892 5892 5892 5892 5892 5892 5893 5893 5893 5893 5893 5893 5893 5893 5894
5912 5915 5913 5912 5911 5910 5908 5907 5906 5905 5904 5903 5902 5901 5901 5899 5898 5898 5897 5897 5896 5895 5894 5894 5893 5892 5892 5892 5891 5891 5892 5892 5892 5892 5892 5892 5892 5892 5892 5892 5892 5893 5893 5893 5893 5893 5893 5893 5894
5915 5916 5915 5914 5912 5911 5910 5909 5908 5907 5906 5905 5904 5903 5902 5901 5900 5899 5899 5898 5897 5896 5895 5894 5893 5893 5893 5892 5892 5892 5892 5893 5893 5893 5893 5893 5892 5892 5892 5892 5892 5892 5893 5893 5893 5893 5893 5893 5893
5917 5917 5916 5915 5914 5913 5912 5911 5910 5909 5908 5907 5906 5905 5903 5902 5901 5901 5900 5900 5899 5898 5896 5894 5893 5892 5893 5893 5893 5893 5893 5893 5893 5893 5893 5893 5893 5893 5893 5892 5892 5892 5892 5892 5893 5893 5893 5893 5893
5919 5919 5918 5917 5916 5915 5914 5913 5912 5910 5910 5909 5907 5906 5905 5904 5903 5902 5902 5901 5900 5899 5897 5895 5893 5892 5893 5894 5894 5894 5894 5894 5894 5894 5894 5893 5893 5893 5893 5892 5892 5892 5892 5892 5892 5893 5893 5893 5893
5921 5921 5920 5919 5918 5917 5916 5915 5914 5912 5911 5910 5909 5908 5907 5906 5905 5904 5903 5902 5901 5900 5898 5896 5895 5894 5895 5895 5895 5895 5895 5895 5894 5894 5894 5894 5893 5893 5893 5892 5892 5892 5892 5892 5892 5892 5892 5892 5892
5923 5922 5922 5921 5920 5919 5918 5917 5916 5914 5913 5912 5911 5909 5909 5907 5906 5906 5905 5904 5903 5901 5900 5899 5897 5897 5897 5896 5896 5896 5896 5895 5894 5894 5894 5894 5893 5893 5893 5892 5892 5892 5892 5892 5892 5892 5892 5892 5892
5924 5925 5924 5923 5922 5921 5920 5919 5918 5916 5915 5913 5912 5911 5910 5909 5908 5907 5906 5905 5904 5903 5902 5901 5900 5899 5898 5898 5897 5897 5896 5896 5895 5895 5894 5894 5893 5893 5892 5892 5892 5891 5891 5891 5891 5891 5891 5890 5890
5927 5927 5927 5926 5924 5923 5924 5922 5920 5918 5917 5915 5914 5913 5912 5911 5910 5909 5908 5907 5906 5905 5904 5903 5902 5901 5900 5899 5898 5898 5897 5897 5896 5895 5894 5894 5893 5892 5892 5892 5891 5891 5891 5891 5890 5890 5889 5889 5889
5929 5929 5929 5928 5926 5925 5925 5923 5922 5920 5919 5917 5916 5915 5914 5913 5912 5911 5910 5909 5908 5906 5905 5904 5903 5902 5901 5901 5900 5899 5899 5898 5897 5896 5895 5894 5893 5892 5892 5891 5891 5890 5890 5890 5889 5889 5888 5887 5887
5931 5930 5930 5929 5928 5927 5926 5925 5924 5922 5921 5919 5918 5917 5916 5915 5914 5913 5911 5910 5909 5908 5907 5906 5905 5904 5903 5902 5901 5900 5900 5899 5898 5897 5895 5894 5893 5892 5891 5891 5890 5889 5889 5888 5888 5888 5887 5886 5885
5930 5930 5930 5930 5929 5928 5927 5927 5925 5924 5923 5921 5920 5919 5917 5916 5915 5914 5913 5912 5911 5910 5908 5907 5906 5905 5904 5904 5903 5902 5901 5900 5898 5897 5896 5895 5893 5892 5891 5890 5889 5888 5888 5887 5886 5886 5885 5884 5884
5930 5931 5931 5930 5929 5929 5928 5928 5927 5925 5924 5923 5922 5920 5919 5918 5917 5916 5914 5913 5912 5911 5910 5909 5908 5907 5906 5905 5904 5903 5901 5900 5899 5898 5897 5895 5893 5892 5890 5889 5888 5887 5886 5886 5885 5884 5884 5883 5882
5930 5931 5931 5930 5930 5930 5929 5930 5928 5927 5925 5924 5923 5922 5920 5919 5918 5917 5916 5915 5913 5912 5911 5910 5909 5908 5907 5906 5905 5903 5902 5901 5899 5898 5896 5895 5893 5891 5890 5888 5887 5886 5885 5884 5883 5883 5882 5881 5881
5930 5930 5930 5930 5930 5931 5931 5932 5930 5927 5926 5925 5924 5922 5921 5920 5919 5918 5917 5916 5915 5913 5912 5911 5910 5909 5908 5906 5905 5904 5903 5901 5900 5898 5896 5894 5893 5891 5889 5887 5886 5884 5883 5883 5882 5881 5880 5880 5879
5928 5929 5929 5929 5930 5931 5931 5931 5932 5928 5927 5926 5924 5923 5922 5921 5920 5919 5918 5917 5916 5914 5913 5912 5911 5910 5908 5907 5906 5904 5903 5902 5900 5898 5896 5894 5892 5890 5888 5886 5884 5883 5882 5881 5880 5879 5878 5878 5877
5927 5928 5928 5929 5930 5931 5930 5930 5930 5928 5926 5926 5924 5923 5922 5921 5920 5919 5918 5917 5916 5915 5914 5912 5911 5910 5909 5907 5906 5904 5903 5902 5900 5898 5896 5894 5891 5889 5887 5885 5883 5881 5880 5879 5878 5877 5876 5875 5874
5926 5928 5930 5930 5931 5931 5929 5928 5929 5927 5926 5925 5924 5923 5922 5921 5920 5919 5919 5918 5917 5916 5914 5913 5912 5910 5909 5907 5906 5904 5903 5901 5899 5897 5895 5893 5891 5888 5886 5884 5882 5880 5878 5877 5876 5875 5874 5873 5872
5924 5926 5928 5930 5930 5930 5928 5927 5927 5925 5924 5924 5923 5922 5922 5921 5920 5919 5918 5917 5917 5915 5914 5913 5912 5910 5909 5907 5905 5904 5902 5900 5898 5896 5894 5892 5890 5887 5885 5882 5880 5878 5877 5875 5874 5873 5872 5870 5869
5921 5922 5924 5926 5926 5926 5927 5926 5925 5923 5923 5922 5922 5921 5921 5920 5919 5919 5918 5917 5916 5915 5914 5913 5911 5910 5908 5906 5905 5903 5901 5899 5898 5896 5893 5891 5888 5886 5883 5881 5879 5877 5875 5873 5872 5870 5869 5867 5866
5918 5919 5921 5922 5922 5924 5925 5924 5924 5922 5921 5921 5920 5919 5919 5919 5918 5917 5917 5916 5915 5914 5913 5911 5910 5909 5907 5905 5904 5902 5900 5898 5896 5894 5892 5890 5887 5884 5882 5880 5877 5875 5873 5871 5869 5868 5866 5864 5863
5914 5916 5916 5918 5918 5920 5922 5924 5921 5919 5919 5918 5918 5917 5917 5916 5916 5916 5915 5914 5913 5912 5911 5910 5908 5907 5905 5904 5902 5900 5898 5896 5894 5892 5890 5888 5885 5883 5880 5878 5875 5873 5871 5868 5866 5864 5862 5861 5859
5909 5911 5913 5914 5914 5915 5916 5921 5917 5916 5915 5915 5915 5915 5914 5914 5914 5913 5913 5912 5911 5910 5909 5908 5906 5905 5903 5902 5900 5898 5896 5894 5892 5890 5887 5885 5883 5881 5878 5875 5873 5870 5868 5865 5863 5861 5859 5857 5855